Wind_Speed
22 23 24 25 26 26 27 27 27 26 26 27 27 28 29 30 31 31 31 31 32 35 38 41 43 44 45 46 46 46 45 44 43 43 43 44 45 47 48 48 47 47 46 45 45 44 42 40 38 38 37 35 34 34 31 29 27 22 19 20 17 15 11 8 11 11 10 8 6 7 6 7 8 10 14 15 16 19 22 22 21 19 17 16 15 15 15 15
21 22 24 25 27 28 29 29 30 30 29 29 29 29 29 30 31 32 32 33 33 34 36 40 42 44 46 47 47 47 46 45 45 44 44 44 46 49 49 49 49 49 48 46 45 45 44 42 40 39 39 37 35 35 33 30 27 23 21 22 20 17 13 10 11 13 14 10 7 8 6 8 7 10 12 12 14 17 21 23 23 21 18 16 15 16 16 15
21 22 23 25 26 28 29 30 31 31 32 32 32 31 31 31 31 32 33 34 34 35 36 38 41 44 46 47 48 48 48 47 47 46 45 45 47 49 50 50 50 50 49 47 47 47 46 44 42 41 40 39 37 36 34 31 29 25 25 25 22 18 14 13 14 15 16 13 10 9 6 7 6 7 8 10 13 15 19 22 24 24 20 18 16 16 17 16
26 26 27 27 28 28 29 30 31 31 32 33 33 34 33 33 32 33 33 34 35 36 37 38 40 43 46 48 49 49 49 49 49 48 47 47 48 49 51 51 51 51 50 49 49 49 49 47 44 42 41 40 38 39 36 33 31 27 28 26 24 20 16 15 15 15 16 15 14 12 8 6 5 5 6 7 11 13 16 20 23 25 24 21 18 17 17 16
33 33 33 33 33 32 32 32 32 32 32 33 33 34 34 34 34 35 35 35 36 37 38 39 40 42 45 48 49 50 50 50 50 49 49 48 49 49 50 52 52 52 51 51 51 51 50 48 46 44 42 42 41 40 37 36 34 30 29 28 26 22 18 17 15 15 16 16 15 13 12 6 3 4 6 6 9 12 13 17 20 24 25 24 21 19 19 18
39 39 39 39 39 38 37 36 36 35 34 34 34 34 34 34 35 36 37 37 37 37 39 41 41 42 43 46 49 51 51 52 52 51 51 50 50 50 50 52 53 53 53 53 53 53 52 50 48 46 44 44 42 42 39 38 35 30 29 30 27 23 19 17 15 15 16 16 15 14 13 8 5 6 5 4 7 10 11 14 16 20 23 24 24 22 22 20
42 42 43 43 43 43 42 41 40 39 39 38 37 36 35 34 34 35 37 38 38 39 40 42 43 43 44 45 48 51 52 53 53 53 52 52 51 51 51 53 54 55 55 55 55 54 53 52 50 48 46 46 44 43 41 38 35 30 29 31 29 24 20 17 15 15 15 15 16 16 16 11 8 8 5 4 5 8 9 11 13 16 19 21 23 23 23 22
42 43 44 45 45 46 45 45 44 43 43 42 41 40 39 37 36 36 36 38 39 40 41 43 44 44 45 45 47 50 52 54 54 54 54 54 53 52 52 53 54 55 56 56 56 55 54 53 52 50 48 47 46 45 43 39 35 31 30 32 30 26 21 17 16 16 15 16 17 17 17 14 12 11 7 7 6 6 7 8 11 14 15 17 19 21 23 23
41 41 41 42 43 45 46 47 47 46 46 46 46 45 43 42 40 39 37 37 39 41 43 44 45 46 46 46 47 49 52 54 55 56 56 56 55 54 54 54 55 56 57 57 57 57 56 54 53 52 50 49 48 47 46 41 36 32 32 33 31 29 23 18 17 17 17 18 18 18 18 17 18 14 10 9 8 5 5 7 9 11 13 14 16 19 21 22
43 42 42 42 43 45 46 47 48 48 49 49 49 49 48 47 45 43 41 39 39 40 43 45 46 47 47 47 48 49 51 54 56 57 57 57 57 56 55 55 55 57 58 58 59 59 57 55 54 54 53 51 51 50 48 45 37 33 36 36 34 33 27 20 17 17 17 18 19 20 19 20 20 16 11 9 9 6 4 6 7 8 10 11 13 16 19 20
47 46 46 47 48 50 51 51 50 50 50 51 52 53 53 52 50 48 46 43 42 41 42 45 47 48 48 49 49 49 52 54 56 58 58 59 58 58 57 56 56 57 59 60 61 60 57 56 55 55 55 53 53 52 50 47 39 36 39 39 37 36 30 21 18 20 20 19 19 21 22 22 20 15 12 10 10 8 5 5 5 6 7 9 10 13 16 18
50 49 50 51 53 55 56 56 55 54 53 52 53 54 55 56 55 53 51 48 46 44 43 44 47 50 50 49 50 51 53 54 56 58 60 60 60 60 59 58 58 58 60 61 60 59 58 57 57 56 56 55 55 54 52 49 41 38 42 41 39 39 33 26 22 22 22 20 19 20 23 24 19 15 13 11 12 9 6 5 5 5 5 6 8 10 14 16
53 53 53 55 57 58 58 58 57 57 55 55 55 55 56 58 58 57 56 54 51 49 47 46 47 49 51 50 51 53 54 55 57 59 60 61 61 61 61 60 59 59 60 61 60 59 59 59 59 58 59 57 56 56 53 51 45 40 43 43 42 42 38 33 28 24 23 21 20 20 24 24 20 16 14 13 12 10 7 6 5 5 4 4 5 8 11 13
59 58 59 60 61 61 60 59 58 58 57 57 57 58 58 58 60 60 60 58 56 54 52 50 48 48 51 52 53 55 56 56 57 59 60 62 62 62 62 62 62 61 61 61 60 61 61 61 61 60 60 59 58 58 56 54 49 43 45 46 46 45 41 37 31 26 26 24 21 21 24 24 22 19 16 14 11 10 9 7 6 5 4 3 3 5 8 10
63 64 64 65 64 64 63 61 60 59 59 58 58 59 60 60 61 62 62 62 61 59 57 54 51 49 50 53 55 56 56 57 58 59 60 62 63 63 64 64 64 63 62 62 61 62 62 62 63 62 62 60 59 60 58 56 52 47 47 49 48 47 44 39 33 29 28 27 25 23 22 23 22 20 18 15 11 11 10 10 8 6 5 4 2 3 5 8
67 68 68 67 67 67 65 63 61 59 59 59 59 60 61 62 62 63 64 64 64 63 61 58 55 52 52 53 56 57 56 57 58 59 60 61 63 64 65 65 65 64 63 62 61 62 63 63 65 64 63 62 61 62 61 59 56 51 51 51 50 50 47 42 38 32 29 29 29 25 22 23 22 19 18 15 12 12 11 11 10 8 7 6 4 2 3 5
71 71 70 70 69 68 65 62 60 58 58 58 58 59 62 63 64 64 65 66 66 66 64 62 59 57 55 54 55 56 56 57 58 59 59 61 62 64 66 67 67 66 64 63 62 63 64 65 66 66 65 63 63 64 63 62 60 55 54 54 52 52 50 45 42 36 31 29 30 28 25 24 22 19 18 14 12 13 12 13 12 10 9 8 6 4 1 2
74 73 72 71 70 67 63 60 56 54 54 55 57 59 61 63 65 65 66 67 68 67 67 65 63 61 58 55 54 55 57 58 59 60 60 61 62 64 67 68 68 67 66 64 63 64 66 67 67 66 66 65 64 65 66 65 62 59 57 55 54 54 53 48 44 38 33 30 29 28 28 26 23 21 19 16 14 15 15 14 13 11 11 9 8 6 3 1
76 75 74 72 68 64 58 54 51 49 50 52 54 57 60 63 65 66 67 68 69 69 68 68 66 64 60 58 56 55 58 60 61 62 61 62 63 65 67 68 68 67 67 66 65 66 67 68 68 68 68 68 68 68 68 66 65 62 59 57 56 56 55 51 46 41 35 31 29 29 30 28 26 23 20 18 16 16 18 16 13 12 12 11 9 7 5 4
79 77 75 71 64 57 52 47 44 43 45 47 51 55 59 63 65 67 68 70 70 70 70 69 68 67 64 62 60 58 59 60 61 63 63 63 64 66 67 68 69 68 68 68 67 67 67 69 69 70 71 73 72 70 69 68 68 66 62 59 58 56 55 53 50 45 38 32 30 29 31 30 27 25 22 19 19 19 20 18 14 13 13 12 11 9 7 6
81 79 75 68 58 50 45 41 39 38 39 42 46 51 56 61 64 67 69 71 72 72 71 71 70 69 67 65 63 61 60 60 62 64 64 63 64 66 67 68 69 70 70 70 69 68 68 69 71 73 74 75 73 71 71 70 70 69 64 60 58 56 56 55 53 50 42 34 31 30 32 32 30 29 25 22 23 23 22 20 15 13 14 14 12 11 9 8
83 80 74 63 53 46 41 37 33 32 33 36 40 45 51 57 62 66 69 72 73 73 73 73 72 71 70 68 66 65 63 62 63 64 65 65 65 66 67 69 71 72 73 72 70 69 69 71 74 75 75 75 74 72 72 71 72 72 67 62 59 58 57 56 54 53 47 39 34 32 34 34 33 32 28 26 27 26 24 23 19 16 15 15 14 12 10 10
85 81 71 59 49 43 37 32 29 27 28 30 34 39 44 51 56 62 67 71 73 74 75 74 73 73 72 71 70 69 67 64 65 66 66 66 67 67 68 70 73 74 73 72 72 71 72 74 77 77 75 75 75 74 73 72 72 74 72 67 63 61 59 57 56 54 50 43 38 35 35 36 36 35 33 31 30 28 27 26 23 19 17 16 14 12 12 12
87 80 68 55 47 41 34 29 24 23 23 25 28 33 39 44 50 56 63 68 72 74 75 75 75 76 75 74 72 71 69 67 65 67 67 68 68 68 69 71 73 74 74 74 74 74 76 78 78 76 76 76 76 76 75 74 74 76 77 73 67 64 62 59 58 55 52 46 41 38 38 37 38 38 37 34 30 30 31 30 26 21 19 18 15 13 12 12
88 79 65 53 45 38 31 26 22 20 20 21 24 28 33 39 44 50 57 63 69 73 76 77 78 79 78 76 75 74 73 70 67 68 69 69 70 70 71 72 74 74 75 75 76 77 78 78 76 76 77 77 78 77 77 76 76 77 79 77 72 68 65 62 61 58 54 48 43 42 42 41 40 39 38 37 33 32 33 32 28 24 21 20 17 15 13 13
88 77 62 51 43 36 28 23 20 18 17 18 20 24 28 34 39 45 51 57 64 70 75 78 79 80 79 78 77 76 76 74 70 69 70 70 71 71 71 72 74 76 76 77 78 78 79 77 77 77 78 78 78 78 79 78 78 79 81 80 77 74 70 66 64 61 56 51 46 44 45 45 42 40 39 38 36 34 33 32 30 26 23 21 19 16 14 14
87 74 59 48 41 33 26 21 17 15 14 15 17 20 24 29 35 40 46 51 59 66 72 76 78 80 80 80 80 79 78 76 73 71 71 71 71 72 72 73 75 76 77 77 78 79 80 79 78 78 79 79 78 78 80 80 80 81 82 82 82 80 76 70 67 65 60 55 50 46 46 46 44 41 41 39 35 33 33 32 30 28 25 24 22 19 17 15
86 71 56 45 38 30 23 18 15 12 12 12 14 17 21 26 31 36 41 47 53 61 67 73 76 79 81 82 81 80 80 79 76 74 73 72 71 73 74 74 74 76 76 76 78 81 81 81 80 80 80 80 79 79 82 83 83 83 84 85 85 84 79 72 70 69 64 58 54 51 49 49 46 43 42 40 36 35 34 32 31 29 28 28 25 21 20 18
83 67 53 43 35 27 21 16 12 10 9 10 12 15 18 22 27 32 37 42 49 55 63 69 74 78 80 82 82 81 81 80 78 76 74 73 72 73 75 75 74 75 76 77 80 81 82 82 82 81 81 81 83 83 83 85 87 86 85 86 85 84 80 75 72 71 67 61 58 55 51 51 49 44 42 41 38 36 35 33 33 32 31 31 28 24 22 20
80 64 50 40 32 24 19 15 12 9 7 7 9 12 16 19 23 27 32 38 44 50 57 64 70 74 77 80 81 81 81 82 81 78 77 75 74 74 75 75 74 74 75 78 81 82 83 84 82 81 82 83 85 85 84 86 89 87 85 85 85 84 82 78 74 72 68 63 60 57 53 51 51 47 43 40 39 39 38 36 35 35 34 33 29 25 23 21
77 60 47 38 29 22 17 13 11 9 8 7 7 10 13 16 20 24 28 33 39 45 52 58 65 70 74 77 79 81 82 83 83 81 80 78 76 75 75 75 75 74 75 79 82 84 85 85 83 84 85 86 86 86 85 87 88 87 85 84 85 85 84 81 78 75 72 67 63 60 57 53 52 50 45 41 40 40 40 38 37 36 36 34 29 25 23 21
74 57 44 35 27 20 15 12 10 9 9 8 8 8 10 13 17 21 25 30 34 40 46 53 59 65 71 74 77 80 82 84 85 84 83 82 79 76 76 76 76 75 77 80 83 85 85 85 86 87 88 88 87 88 87 86 86 86 85 84 84 86 86 85 84 81 77 73 67 64 61 57 54 52 48 45 42 41 42 40 37 37 36 34 31 27 24 23
70 55 42 33 25 18 14 11 9 8 8 8 8 8 9 11 15 19 23 27 31 35 41 47 54 60 66 71 75 79 82 84 86 87 86 84 82 80 79 79 77 77 78 80 82 84 84 86 88 88 89 89 89 88 87 85 83 84 86 85 85 86 86 85 87 86 82 77 71 66 63 60 58 55 52 50 45 42 42 39 36 37 36 34 31 28 25 25
67 53 41 32 23 17 13 11 8 7 7 7 8 9 9 10 12 15 19 24 28 33 39 45 51 56 62 67 73 78 81 83 85 87 86 85 84 82 80 80 79 78 79 79 80 82 84 86 87 88 88 89 89 89 88 86 84 84 87 88 88 88 87 86 87 88 86 82 75 69 65 62 62 59 56 56 51 45 43 39 35 37 37 35 32 27 25 27
63 50 39 31 23 16 13 11 9 7 6 6 7 9 9 9 11 13 16 21 26 31 36 42 49 55 60 65 71 75 78 82 84 86 87 86 84 82 80 79 79 79 78 79 80 81 83 85 87 88 89 90 90 90 89 88 86 86 87 89 90 89 89 88 89 90 89 87 81 73 69 67 64 61 61 59 55 50 45 40 37 39 40 39 34 28 28 30
60 47 38 30 23 16 13 12 10 8 6 6 8 9 9 10 11 13 15 18 23 28 34 39 45 52 58 63 66 70 75 79 83 85 85 85 85 82 79 78 79 78 78 79 80 81 83 85 87 88 89 91 92 91 90 89 88 86 86 88 91 92 91 90 91 92 89 87 83 76 72 70 66 63 62 59 56 55 49 43 42 42 42 41 35 30 30 32
56 45 37 29 22 15 12 11 10 7 6 7 8 9 10 11 14 15 17 19 21 25 31 37 42 48 54 59 64 67 72 76 80 82 83 84 84 82 80 79 79 79 78 78 80 81 83 86 88 89 90 92 93 92 90 89 88 87 86 88 92 94 93 91 91 92 89 86 85 82 75 72 69 66 65 61 58 58 55 48 45 45 44 42 38 33 33 34
54 41 35 28 22 15 11 9 8 7 7 8 8 9 11 13 15 17 19 21 23 25 28 33 39 44 50 57 62 67 70 73 76 79 81 82 82 81 80 80 79 79 79 78 80 82 84 86 88 90 92 93 93 92 91 89 88 88 89 90 92 94 95 94 91 91 90 86 86 86 81 74 72 69 67 64 60 59 60 56 49 46 46 44 41 38 38 38
52 39 31 26 21 16 11 9 8 8 8 9 9 10 11 13 16 17 19 21 25 28 30 31 35 40 47 53 59 65 70 73 75 77 79 80 81 81 81 80 79 79 79 79 80 82 84 85 88 91 92 92 93 93 91 91 90 89 91 90 91 94 97 97 93 91 91 88 87 89 86 78 74 71 68 66 63 60 61 59 53 47 46 45 43 41 41 41
51 38 29 24 19 15 12 9 8 9 10 10 9 9 11 14 16 17 18 20 24 28 32 33 34 37 43 49 56 62 68 72 74 76 78 79 80 81 82 81 80 80 80 80 81 83 84 86 88 90 92 92 93 93 93 92 92 92 92 91 91 94 96 97 95 93 92 90 88 89 88 83 79 74 71 69 67 62 57 55 52 46 43 45 46 44 43 41
49 37 28 23 18 14 11 10 9 10 11 11 9 10 13 15 16 17 18 19 22 26 31 34 35 37 41 45 52 59 65 68 71 75 79 80 80 81 81 81 81 81 81 82 82 83 84 86 88 90 92 94 95 94 94 94 94 95 94 93 94 95 95 95 96 95 93 92 90 88 88 87 83 77 74 72 70 65 57 51 48 44 39 40 46 48 46 43
47 36 28 22 18 14 11 10 11 11 11 11 11 12 13 14 16 17 17 18 20 23 28 33 36 39 41 45 50 56 62 65 68 72 77 79 81 82 82 82 81 82 82 82 82 83 84 86 88 89 93 95 96 95 95 95 96 96 96 96 96 96 94 93 94 96 95 94 92 91 89 88 86 80 77 76 74 69 62 52 46 45 43 41 45 48 47 45
44 35 28 22 18 15 12 11 11 12 12 13 13 13 13 14 15 17 18 19 19 21 25 30 36 40 42 45 49 53 58 62 66 70 74 77 80 82 83 83 82 82 82 82 82 83 84 86 88 90 93 96 97 96 96 96 97 98 99 98 96 95 94 93 93 96 98 96 94 93 91 89 88 85 81 80 79 75 68 59 50 49 51 50 48 45 45 48
42 34 27 21 18 16 14 13 12 12 13 14 14 13 13 13 15 17 19 19 19 19 21 26 33 39 42 46 49 51 54 58 63 67 71 75 78 80 82 83 83 83 82 83 83 83 84 85 88 91 94 96 98 98 97 97 99 100 100 99 96 94 93 93 94 96 99 98 96 95 93 91 91 90 88 86 84 80 76 70 62 55 56 59 55 46 45 53
40 33 26 20 18 16 15 14 14 13 14 14 14 13 12 13 15 18 20 20 19 17 18 23 29 36 42 47 50 52 53 56 60 64 68 72 76 78 80 82 83 84 84 84 83 83 84 85 88 91 93 95 97 98 98 98 99 100 100 99 97 95 94 94 94 96 97 99 98 96 94 93 93 93 93 91 88 85 82 80 75 66 60 63 64 56 51 56
38 31 25 19 16 16 15 14 15 15 15 14 14 13 12 13 14 17 19 20 19 16 16 20 25 32 39 46 51 54 55 56 59 62 65 69 73 76 78 80 82 84 85 85 84 84 85 86 88 91 93 95 97 98 98 99 99 100 100 99 98 97 96 94 94 95 95 97 99 98 96 94 93 94 95 94 92 90 88 86 84 79 71 67 68 67 60 57
37 30 24 18 16 16 15 14 15 16 16 15 14 13 11 12 14 16 19 20 19 16 14 16 20 27 35 42 49 54 57 58 60 62 64 67 71 74 77 79 81 83 85 86 86 86 86 87 88 90 93 94 96 97 99 100 100 100 100 99 99 98 97 96 95 95 95 95 97 98 98 96 94 94 96 96 96 94 93 91 89 87 82 76 72 72 68 63
36 29 24 18 16 16 15 15 14 15 17 16 14 12 11 11 12 15 18 20 19 16 12 11 16 22 30 37 45 52 57 60 62 63 64 66 69 72 75 78 80 82 84 86 86 87 87 88 88 90 92 94 95 97 99 100 101 101 101 100 100 100 98 98 98 97 96 95 95 96 97 97 97 96 96 97 97 96 95 94 93 90 89 85 81 77 74 71
34 29 24 19 17 16 15 14 14 15 17 16 14 13 12 11 11 13 16 19 19 17 12 8 11 18 24 31 39 47 54 59 62 64 65 66 68 70 74 77 80 81 83 85 86 87 88 88 89 90 92 93 95 96 98 99 100 102 102 101 100 100 100 100 100 99 98 96 95 94 95 97 98 98 97 97 97 97 96 95 94 93 91 90 87 84 82 79
33 28 24 20 18 16 14 13 13 14 16 15 14 13 12 12 12 12 15 17 19 18 13 8 8 13 19 26 33 40 48 54 59 63 66 67 68 70 73 76 79 80 82 83 85 87 87 88 89 90 91 93 93 95 96 98 100 101 102 102 101 101 101 101 101 101 99 97 96 95 94 95 96 97 97 97 96 97 98 96 95 94 94 93 91 89 87 85
32 27 23 20 18 16 14 12 12 14 16 15 14 13 12 12 12 12 14 16 18 19 15 10 6 8 14 21 28 34 41 48 53 59 64 68 69 71 72 74 76 78 80 82 84 86 86 87 88 90 91 92 92 93 94 97 99 101 103 103 103 102 103 103 103 102 101 99 98 97 95 94 95 95 96 96 96 96 97 97 96 96 96 95 94 93 90 88
32 27 23 20 18 16 14 12 13 15 16 15 14 13 11 12 12 13 14 15 18 19 18 12 7 5 9 16 23 29 36 43 49 54 60 66 70 72 74 75 75 76 78 80 82 84 85 86 87 89 91 92 92 92 93 95 99 101 103 105 104 104 104 104 104 104 103 102 101 99 98 97 96 95 95 96 97 97 97 97 97 98 98 98 97 95 94 91
Wind_Direction
299 295 290 286 281 277 274 272 271 270 268 266 264 261 258 255 252 249 246 242 238 234 232 229 228 227 227 226 225 223 222 222 221 220 217 214 212 213 212 210 209 209 208 207 204 202 202 201 202 203 202 200 198 195 188 186 181 160 163 177 166 168 174 179 200 194 194 213 232 247 203 130 92 78 67 54 50 48 48 49 53 56 57 58 61 65 67 65
305 302 298 293 289 284 279 275 272 270 269 267 265 263 260 257 254 250 247 244 240 236 233 230 229 227 227 226 225 223 222 221 220 220 218 215 213 213 212 210 209 209 209 207 205 203 201 200 201 202 201 199 198 195 189 187 175 162 176 180 169 167 166 180 197 200 205 196 199 228 185 131 105 83 70 58 53 51 50 51 54 56 56 56 57 62 65 64
301 299 296 294 291 288 285 281 278 274 271 269 266 264 261 259 256 253 249 245 242 239 235 231 229 228 227 226 226 224 222 221 220 219 218 216 215 214 212 211 209 209 209 208 207 204 201 200 200 201 200 199 198 195 191 186 172 169 183 178 170 168 166 183 197 206 212 200 195 222 194 138 121 96 78 63 57 54 53 53 56 58 57 56 55 60 63 62
297 294 291 288 286 285 285 284 282 279 276 273 269 266 262 260 258 256 252 248 244 241 238 233 230 228 227 226 226 224 223 221 220 219 218 216 216 215 213 211 210 209 209 208 208 206 202 199 199 200 199 198 198 195 192 185 173 172 181 176 169 169 169 184 202 213 215 204 193 206 204 155 137 123 94 74 64 59 57 55 57 60 59 57 54 57 62 62
298 295 292 289 286 284 283 282 281 280 279 276 273 269 265 261 258 256 253 251 247 243 240 236 232 229 227 226 225 224 223 222 221 219 218 217 217 215 214 212 210 209 208 208 209 207 203 199 198 199 198 198 198 196 192 186 178 173 176 175 172 170 171 184 205 216 217 214 201 205 210 189 178 153 111 95 77 62 60 59 57 60 62 60 56 56 61 62
299 296 294 292 289 287 284 281 279 278 277 276 274 271 268 264 259 256 253 251 248 246 243 239 234 230 228 226 226 224 223 222 221 219 218 217 217 216 214 213 211 209 208 208 209 208 204 200 198 198 198 198 198 196 192 191 184 172 174 177 173 171 177 186 198 211 218 221 216 217 211 199 200 175 134 119 93 70 64 62 59 60 61 62 60 56 58 61
298 296 295 293 291 289 285 282 279 276 274 273 271 270 268 265 261 258 254 250 247 246 245 242 237 231 228 226 225 225 223 223 221 220 219 218 218 217 214 213 212 210 209 208 208 209 206 201 198 198 198 197 197 196 193 193 185 171 176 182 174 171 181 187 191 209 222 219 222 224 210 194 188 184 165 154 120 84 70 64 63 61 59 59 60 58 56 59
298 296 294 293 291 289 286 282 278 274 271 269 267 266 264 263 260 257 255 252 248 245 244 244 241 235 229 227 225 224 224 223 221 220 219 218 217 217 215 213 213 211 209 209 208 209 207 203 199 199 198 197 197 196 194 194 185 176 183 185 174 171 180 185 191 210 221 219 227 222 204 185 174 184 184 167 149 104 79 67 65 64 60 55 57 58 56 56
302 299 296 294 293 290 287 283 278 273 269 266 264 262 260 259 257 255 253 252 249 245 242 242 242 239 233 228 225 224 223 223 221 220 219 219 217 217 216 213 212 212 210 209 208 208 208 204 200 199 198 197 197 196 195 193 186 183 187 184 175 173 177 185 196 210 217 219 223 217 201 182 176 186 189 174 160 140 96 78 68 64 64 56 53 55 55 54
308 305 303 301 300 297 293 288 282 275 268 264 261 259 257 255 255 253 251 250 249 247 243 240 239 240 237 231 226 224 223 223 221 220 219 219 218 217 217 214 212 212 212 210 209 208 207 204 201 200 198 197 197 195 196 192 187 187 186 182 177 173 174 186 199 205 209 212 211 210 205 192 188 189 188 181 168 164 132 97 78 65 65 58 51 51 52 52
311 309 307 305 304 301 298 293 287 280 271 264 259 256 254 252 251 251 249 247 246 246 244 241 237 237 238 235 228 224 223 222 221 220 219 218 218 217 216 215 213 212 212 211 209 208 206 205 203 201 199 198 197 196 195 191 186 189 187 181 179 175 175 184 195 199 200 207 207 206 206 198 197 195 189 187 176 175 161 122 98 75 69 58 51 48 48 48
311 307 305 303 302 300 296 292 288 282 275 266 258 253 251 250 249 248 247 246 244 243 243 242 238 234 235 236 233 226 223 222 221 220 219 218 217 216 216 215 214 212 212 211 210 207 206 205 204 202 200 198 198 197 195 190 185 189 189 184 181 179 177 179 187 194 193 200 206 207 209 204 199 198 195 191 181 180 181 155 128 102 82 66 55 47 45 44
311 307 304 302 300 298 294 289 285 280 274 267 259 253 248 247 246 245 244 243 242 242 241 240 239 235 232 233 234 230 224 221 221 219 218 218 216 216 216 215 215 213 212 211 209 208 207 206 204 202 201 198 198 197 194 190 186 189 191 188 184 181 179 178 182 188 187 195 206 209 211 206 197 196 197 194 188 190 200 190 160 136 119 88 64 50 45 43
313 310 307 304 302 299 294 288 281 276 271 265 258 252 247 243 242 242 241 240 239 239 239 238 237 235 231 229 231 232 228 222 220 220 218 217 216 216 215 215 215 213 212 210 209 208 207 206 204 203 202 199 198 198 194 190 186 188 193 192 188 184 180 179 179 184 189 195 207 210 207 201 195 195 197 197 200 209 213 203 180 160 158 139 88 59 47 44
315 312 309 307 303 299 294 288 280 274 268 262 255 250 246 241 239 238 238 238 236 236 236 236 235 234 232 229 228 230 231 226 221 220 219 217 216 215 215 215 215 214 212 210 208 208 207 206 205 204 202 199 198 198 195 191 187 188 196 196 192 187 181 180 181 184 189 193 201 207 209 203 198 200 200 198 207 217 212 203 194 184 189 184 141 81 52 43
317 314 312 309 305 300 294 288 281 274 267 260 253 248 243 240 236 234 234 235 234 233 233 233 232 232 232 230 227 227 230 229 224 220 219 218 216 215 215 215 215 214 213 210 208 208 208 207 206 204 202 200 199 198 196 193 188 189 197 198 196 191 184 182 183 183 184 188 193 199 209 209 204 206 202 195 204 209 204 203 203 202 206 203 195 167 69 44
320 318 315 311 306 301 295 288 281 273 265 258 251 246 241 238 235 232 231 231 232 231 231 230 230 230 231 230 228 225 227 230 228 222 219 219 217 216 215 215 214 214 213 211 208 208 209 208 207 204 203 201 200 199 196 193 189 189 197 199 198 196 189 185 184 181 180 185 189 192 202 207 206 209 205 201 206 206 206 209 208 214 215 211 216 207 155 44
323 321 317 313 308 302 296 289 281 271 262 255 248 243 239 236 233 230 228 227 228 229 228 228 228 228 229 229 228 225 224 226 229 225 219 218 218 216 215 215 214 213 213 211 209 208 208 209 207 205 203 202 202 200 197 194 190 190 196 198 198 199 194 189 185 183 183 187 190 192 197 201 203 207 207 209 211 210 218 219 214 221 219 215 225 223 217 246
327 324 320 315 310 304 297 289 280 270 260 252 246 240 237 234 231 228 226 225 225 225 225 225 225 226 227 228 228 225 223 222 226 227 221 217 216 216 216 215 215 214 213 212 210 208 208 209 208 205 204 203 203 202 198 194 191 191 196 196 197 199 198 194 189 187 187 189 191 193 195 196 200 203 202 207 212 215 222 223 220 224 222 217 224 229 234 251
330 327 323 318 313 306 299 290 280 270 260 251 243 238 234 231 228 226 225 224 223 222 223 223 223 223 224 225 226 225 223 221 223 226 224 218 216 215 215 214 214 213 213 213 211 209 208 209 208 207 205 204 203 202 198 195 192 193 195 196 197 199 199 198 195 192 190 190 192 195 197 197 199 198 197 205 211 216 221 220 220 224 224 221 221 228 235 249
332 330 326 322 316 309 302 293 283 272 261 251 243 237 232 229 226 224 223 222 221 221 220 220 221 220 221 223 224 224 223 221 220 223 225 221 217 215 215 214 213 213 212 212 211 210 208 209 209 208 206 205 204 202 200 196 194 194 195 197 197 198 200 200 198 195 194 194 194 197 200 199 198 195 195 203 208 215 221 218 218 221 223 225 224 228 232 243
335 333 330 326 320 314 307 298 287 275 262 252 243 236 231 228 225 222 221 220 219 219 218 218 218 218 219 220 222 222 222 220 218 220 223 222 219 216 215 215 213 212 211 211 210 210 209 210 211 209 207 205 204 203 201 198 196 196 195 196 196 196 201 202 199 197 196 195 194 200 204 201 199 196 198 206 209 213 220 220 221 219 217 223 224 228 234 240
338 336 334 330 325 320 312 303 291 278 266 254 244 236 230 226 223 221 219 218 217 217 216 216 216 216 217 218 220 221 221 220 217 217 219 221 220 216 214 214 214 212 210 210 210 210 210 211 211 210 207 206 204 203 202 200 198 197 197 197 195 196 199 202 201 198 196 194 193 201 205 203 201 197 199 206 209 213 218 221 223 217 213 219 221 223 231 239
341 339 337 333 329 324 316 307 296 283 270 257 246 237 230 225 221 219 218 216 215 214 214 214 214 215 215 216 217 219 220 220 218 216 217 218 219 217 214 214 214 213 210 209 209 210 211 211 210 209 208 206 205 203 203 202 199 198 199 198 196 196 198 201 201 198 195 193 194 199 202 202 201 197 199 205 208 214 216 218 220 214 213 220 222 219 224 235
343 342 339 336 332 327 319 311 301 290 276 261 248 237 229 224 220 218 216 214 213 212 212 212 213 213 214 214 215 216 217 218 218 216 216 216 217 217 215 213 213 213 211 209 209 210 211 211 210 209 209 207 205 204 203 203 201 200 199 199 197 197 198 201 200 196 194 194 195 200 200 199 200 198 200 204 207 213 215 216 217 213 214 222 223 219 221 228
344 343 341 337 333 329 322 314 306 294 280 264 249 237 229 223 219 217 215 213 212 211 210 210 211 212 212 213 214 215 215 216 217 216 216 216 216 217 216 214 213 213 211 209 209 210 211 211 210 210 209 208 206 205 205 204 203 202 200 199 199 199 198 199 199 196 195 196 196 200 200 199 200 201 200 202 207 214 216 217 216 212 216 222 221 220 224 225
345 344 342 338 334 329 324 316 308 295 280 265 250 238 228 222 219 216 214 213 211 210 209 209 210 211 211 212 213 213 214 215 215 215 215 215 215 216 217 215 214 213 212 210 209 210 210 210 211 210 210 209 207 206 206 205 204 203 201 199 200 202 200 198 199 198 198 200 197 197 199 197 199 201 200 200 206 214 217 217 215 215 218 221 220 220 223 222
346 345 342 339 334 329 324 317 308 295 279 264 250 238 229 222 219 216 214 213 212 210 209 209 209 210 210 211 212 212 212 213 214 215 214 214 214 215 216 216 214 213 212 211 211 210 209 210 211 210 210 209 208 208 207 206 206 204 202 201 201 203 201 197 199 201 202 203 201 197 197 196 197 198 199 200 205 212 215 214 214 217 219 220 220 219 218 217
346 345 342 339 334 328 323 319 312 300 282 263 249 238 230 225 221 217 215 213 212 210 209 209 208 209 210 211 211 211 211 212 213 214 214 214 213 213 216 216 215 213 212 212 212 211 210 210 210 211 210 209 209 209 208 207 207 205 203 202 202 204 203 199 201 204 204 205 205 201 198 198 199 198 198 200 204 211 214 213 212 215 217 218 218 216 215 215
346 345 342 339 334 327 323 320 318 312 294 271 252 240 233 227 223 220 217 214 213 211 210 209 209 209 210 211 211 211 211 211 212 213 214 214 213 212 214 215 215 214 213 213 213 211 210 209 209 211 212 212 211 209 208 209 208 206 204 203 203 204 204 203 204 206 207 207 207 204 201 200 201 201 200 201 205 210 213 214 213 213 214 216 216 214 214 215
346 344 341 338 333 325 321 320 324 325 313 292 265 246 235 229 225 222 219 216 214 212 211 210 210 209 210 210 211 211 210 210 211 212 213 214 213 212 212 213 214 214 213 213 213 212 210 209 208 210 212 213 212 210 210 210 209 206 205 204 204 204 205 205 207 209 209 210 209 205 201 200 200 200 201 203 207 211 212 213 214 213 213 215 215 212 213 217
346 344 341 337 332 323 318 318 325 331 322 306 284 263 244 231 226 222 220 217 215 214 212 211 211 210 210 210 211 211 210 210 210 211 212 213 213 212 211 212 212 213 213 213 213 213 211 209 209 209 211 212 212 211 211 211 210 208 206 205 205 205 206 206 208 210 210 210 209 205 202 200 198 197 198 201 205 209 210 211 213 213 213 214 213 209 211 218
345 343 340 336 331 320 309 307 313 321 317 301 284 270 253 239 230 224 221 219 216 214 212 211 211 211 211 210 211 211 211 210 210 211 212 213 213 212 211 210 211 212 213 214 213 213 212 211 210 210 211 212 212 211 211 211 210 209 208 206 206 207 207 208 209 211 210 209 208 205 203 200 198 197 197 200 203 205 207 207 211 215 214 213 212 207 211 219
344 341 339 335 330 317 301 293 292 300 302 288 275 266 255 247 239 231 225 221 217 215 213 211 210 210 210 211 211 212 211 211 211 211 212 213 213 213 211 210 210 212 213 213 213 213 213 212 212 211 211 213 213 212 210 209 210 210 209 208 207 207 208 209 211 212 211 209 208 205 204 202 199 198 200 203 205 206 204 201 206 216 215 212 211 208 214 222
343 340 338 334 329 318 301 291 283 283 283 270 263 257 250 247 243 237 231 225 220 217 215 213 211 210 210 210 211 212 212 212 212 212 213 214 214 214 213 211 211 212 214 213 213 213 214 214 213 213 212 213 214 213 211 209 209 210 210 209 209 209 209 210 211 212 211 210 209 206 205 204 201 198 201 207 209 207 203 197 200 211 213 210 208 207 215 223
343 339 336 333 328 319 303 292 282 276 265 250 247 246 243 243 243 243 239 234 226 220 217 216 214 212 211 211 211 212 213 214 213 213 213 214 214 214 214 213 213 213 214 214 213 213 214 214 214 214 214 214 214 214 212 210 209 210 210 210 210 210 210 210 212 212 211 211 211 208 206 207 204 201 202 207 210 209 206 200 200 207 210 208 205 204 214 221
343 337 334 331 326 317 302 290 278 268 254 242 240 241 241 241 242 244 246 245 239 229 223 218 216 214 213 212 212 212 213 215 215 214 214 215 215 215 214 214 214 214 214 214 214 214 214 214 214 214 215 215 215 214 213 211 210 210 211 211 212 211 211 211 212 212 210 211 211 210 208 208 207 204 205 207 211 212 212 207 205 207 209 209 206 205 213 221
343 337 332 328 324 315 301 287 275 263 251 244 242 242 241 241 241 243 245 248 248 243 234 225 219 216 214 214 213 212 212 214 215 215 215 215 215 216 216 215 215 215 215 215 215 215 214 214 214 215 215 215 215 214 214 212 211 211 212 212 212 213 212 212 212 212 211 210 211 211 210 208 208 207 207 209 212 215 216 212 208 208 210 212 211 210 215 220
343 338 331 325 320 314 302 286 269 261 255 244 238 239 242 246 248 248 246 247 248 247 243 235 225 220 217 216 215 214 213 212 212 214 215 215 215 216 216 216 215 216 216 215 216 216 215 215 215 215 216 216 216 215 214 213 212 212 213 214 213 214 214 213 212 211 211 211 212 213 211 209 208 208 208 210 213 217 218 215 212 211 212 214 214 214 218 222
342 338 331 323 317 308 295 278 259 253 253 245 243 250 255 257 259 259 255 251 249 247 245 240 232 225 220 218 217 217 216 214 212 212 213 214 215 216 216 216 216 216 216 216 216 216 216 216 216 216 216 217 217 215 214 213 213 212 213 214 215 216 215 214 213 212 211 211 212 213 212 210 208 208 207 210 214 217 217 215 213 214 217 220 219 217 220 223
341 338 331 323 315 302 285 271 256 249 247 245 254 265 264 264 266 267 265 261 255 249 244 240 235 229 224 220 219 219 218 215 214 213 213 213 214 215 215 216 216 216 216 216 216 216 216 216 216 216 216 217 217 216 214 213 213 214 213 214 215 216 216 215 215 214 213 212 213 213 213 211 208 207 207 210 214 216 215 213 211 212 217 221 222 221 220 222
340 336 331 324 314 300 282 265 255 252 251 252 258 263 264 269 276 279 277 272 265 254 245 239 234 230 225 222 221 220 218 216 214 214 214 213 214 214 214 215 216 216 217 217 217 217 217 217 216 216 217 217 217 217 216 214 214 215 214 214 215 216 216 215 215 216 215 214 213 212 213 211 208 206 208 211 215 216 214 212 210 212 215 217 221 223 222 221
339 335 330 323 313 298 281 266 257 256 261 260 258 260 267 276 286 292 291 286 278 264 249 238 232 228 225 223 222 221 219 216 215 215 215 214 214 215 215 214 215 216 217 217 217 217 217 217 217 217 217 218 218 217 217 215 215 215 215 215 215 216 216 216 216 216 216 216 214 213 213 212 209 207 209 212 216 217 215 213 211 213 217 218 218 219 219 220
338 334 330 321 311 298 282 272 264 259 261 259 256 262 276 287 297 303 302 297 291 275 255 240 231 226 222 222 222 222 219 217 215 215 215 215 215 215 216 216 215 215 216 217 218 218 217 217 217 217 217 218 218 218 217 217 216 216 216 215 215 215 216 217 217 217 217 217 216 215 214 213 211 210 211 213 216 217 217 216 213 213 216 218 216 213 215 219
337 333 330 320 308 298 285 276 268 260 259 259 258 264 279 293 304 309 308 305 302 287 262 242 231 224 220 218 219 220 219 216 215 214 215 215 215 215 216 216 216 216 216 216 217 218 218 217 217 217 217 218 218 218 218 218 218 217 217 216 215 215 216 217 218 219 218 218 217 216 215 215 214 213 213 215 217 218 219 220 218 215 216 218 217 213 214 216
336 332 329 321 305 295 287 280 272 263 260 261 260 263 279 295 306 313 315 314 312 298 271 247 233 225 220 217 216 217 217 216 215 214 213 214 214 215 216 217 217 216 216 216 216 217 218 218 218 218 218 218 218 218 218 219 219 219 218 217 216 216 216 217 218 220 220 219 219 218 217 216 216 216 216 217 219 220 221 222 221 219 218 219 217 214 215 216
336 332 328 320 303 294 287 279 273 265 261 262 262 264 276 294 307 317 321 321 320 310 285 258 240 228 222 218 216 215 216 215 214 213 212 213 213 213 215 216 217 217 217 216 216 216 217 217 217 218 218 218 218 218 218 218 219 219 219 218 217 217 216 216 218 219 220 220 220 219 219 218 218 218 218 218 219 221 222 223 223 222 221 221 219 217 217 218
334 332 328 317 302 294 286 279 275 268 264 265 267 267 276 292 307 320 326 328 328 322 302 269 245 233 226 220 217 215 215 215 214 213 212 212 212 212 213 215 217 217 217 217 216 216 217 217 216 217 218 219 218 218 218 218 219 219 219 218 218 218 217 217 218 219 219 220 220 220 220 219 219 219 220 220 220 222 223 224 224 224 223 223 223 222 220 220
333 331 326 316 302 294 286 282 279 271 266 269 274 275 280 292 308 322 330 334 336 333 320 285 248 236 229 224 220 218 216 215 214 214 213 212 212 212 213 214 215 216 217 217 217 217 217 217 216 216 217 218 219 219 219 219 219 219 220 219 219 219 219 218 218 219 219 220 220 220 221 221 220 220 221 222 222 223 224 224 225 225 225 225 225 226 225 224
333 330 324 314 304 297 291 286 281 272 266 270 276 279 285 296 308 322 332 339 343 342 335 313 263 239 231 226 223 221 219 216 215 215 214 213 212 213 213 214 215 216 216 217 217 217 217 217 217 217 217 217 218 219 219 219 219 219 220 220 219 220 220 219 219 219 220 220 220 220 221 221 222 222 222 223 224 225 225 226 226 226 226 226 226 226 227 227
332 329 323 313 305 300 296 288 279 270 265 268 274 278 287 299 309 322 333 342 348 350 347 335 294 248 235 227 222 221 220 218 216 216 216 215 214 214 215 215 215 215 216 216 217 217 217 218 218 218 217 217 217 218 219 220 220 220 220 220 219 220 220 220 220 220 220 220 220 220 220 221 222 222 222 223 223 225 226 227 227 227 226 226 226 227 227 228
331 328 322 314 305 300 296 287 275 267 263 266 272 276 285 299 311 322 332 342 351 355 355 348 325 267 241 233 225 221 219 218 215 215 216 216 215 214 215 216 216 216 216 216 216 217 217 217 218 218 218 217 217 217 218 220 220 220 220 220 219 219 220 221 221 220 220 221 221 220 220 221 221 221 222 222 223 224 225 226 227 228 227 227 227 227 227 228
Height
10907 10906 10904 10903 10902 10901 10900 10899 10898 10897 10897 10897 10896 10897 10897 10897 10897 10897 10898 10899 10900 10901 10903 10905 10907 10909 10911 10914 10916 10919 10922 10925 10928 10932 10935 10939 10941 10942 10945 10949 10952 10955 10957 10960 10963 10967 10971 10974 10977 10980 10984 10987 10990 10992 10995 10998 11000 11002 11002 11003 11005 11006 11008 11010 11011 11011 11012 11013 11014 11013 11012 11012 11012 11011 11010 11009 11009 11009 11007 11005 11003 11001 11000 10999 10999 10998 10997 10997
10904 10903 10902 10901 10899 10898 10897 10897 10896 10895 10895 10894 10894 10894 10894 10894 10894 10894 10894 10895 10896 10897 10899 10900 10902 10905 10907 10909 10912 10915 10918 10922 10924 10927 10931 10935 10938 10938 10942 10946 10949 10952 10954 10958 10961 10964 10968 10972 10975 10978 10981 10985 10988 10991 10994 10996 10999 11001 11001 11002 11003 11005 11008 11009 11010 11010 11011 11012 11013 11012 11012 11011 11012 11011 11011 11011 11011 11010 11009 11007 11004 11002 11001 11001 11001 11000 10999 10998
10902 10900 10899 10897 10896 10895 10894 10894 10893 10892 10892 10891 10891 10891 10891 10891 10891 10891 10891 10891 10892 10893 10894 10896 10898 10900 10902 10905 10908 10911 10914 10918 10920 10923 10927 10931 10933 10935 10938 10942 10945 10949 10952 10956 10959 10961 10965 10968 10972 10975 10979 10983 10986 10989 10992 10995 10998 11000 11000 11001 11003 11005 11007 11008 11009 11008 11009 11011 11011 11012 11011 11011 11011 11012 11012 11012 11011 11011 11010 11008 11006 11004 11003 11003 11003 11001 11000 11000
10899 10898 10896 10894 10893 10892 10891 10890 10890 10889 10888 10888 10887 10887 10887 10887 10887 10887 10888 10888 10888 10889 10890 10891 10893 10895 10898 10900 10903 10906 10910 10913 10916 10919 10923 10926 10929 10931 10935 10939 10942 10946 10949 10953 10955 10958 10961 10965 10970 10973 10977 10981 10984 10987 10991 10994 10996 10998 10998 11000 11002 11004 11006 11007 11007 11007 11008 11010 11010 11010 11011 11011 11011 11012 11012 11012 11012 11012 11011 11010 11008 11006 11005 11005 11004 11003 11002 11001
10896 10895 10893 10891 10890 10889 10888 10887 10886 10885 10885 10884 10883 10883 10883 10883 10884 10883 10884 10884 10885 10885 10885 10886 10888 10890 10893 10895 10898 10901 10905 10908 10911 10915 10918 10921 10924 10928 10932 10935 10939 10943 10946 10949 10952 10954 10958 10963 10967 10971 10975 10979 10982 10986 10989 10992 10994 10995 10996 10999 11001 11004 11005 11006 11006 11007 11008 11009 11010 11010 11011 11010 11011 11012 11012 11012 11012 11013 11012 11012 11010 11008 11007 11007 11006 11005 11004 11003
10892 10890 10889 10887 10886 10884 10883 10883 10882 10882 10881 10880 10879 10878 10878 10878 10879 10879 10879 10880 10881 10881 10880 10881 10883 10885 10888 10890 10893 10896 10900 10903 10907 10911 10914 10917 10920 10924 10928 10931 10935 10939 10942 10945 10948 10951 10956 10960 10964 10969 10972 10976 10980 10984 10988 10990 10992 10994 10995 10997 11000 11003 11005 11005 11006 11006 11007 11009 11010 11011 11010 11010 11011 11011 11012 11012 11012 11013 11013 11013 11012 11011 11010 11009 11008 11008 11006 11004
10888 10886 10884 10882 10880 10879 10878 10877 10877 10877 10876 10875 10874 10873 10873 10873 10873 10873 10873 10874 10876 10877 10876 10876 10877 10880 10882 10885 10888 10891 10895 10898 10901 10906 10909 10912 10916 10919 10924 10927 10931 10935 10938 10941 10944 10948 10953 10957 10962 10965 10969 10974 10978 10982 10986 10989 10992 10994 10994 10995 10998 11001 11004 11005 11006 11007 11007 11008 11009 11010 11010 11009 11010 11011 11012 11013 11012 11013 11014 11014 11013 11012 11012 11011 11010 11009 11008 11006
10883 10881 10879 10877 10875 10873 10871 10870 10869 10870 10869 10869 10868 10868 10867 10866 10866 10867 10868 10869 10870 10871 10872 10871 10872 10874 10877 10880 10883 10886 10889 10892 10896 10901 10904 10907 10911 10915 10919 10923 10927 10931 10934 10937 10941 10945 10950 10955 10959 10963 10967 10972 10976 10980 10984 10987 10991 10993 10993 10994 10996 10999 11002 11005 11007 11007 11007 11008 11008 11009 11010 11008 11009 11011 11011 11012 11013 11013 11014 11015 11014 11013 11013 11013 11012 11011 11009 11008
10877 10875 10873 10871 10868 10866 10864 10863 10862 10861 10861 10861 10861 10860 10860 10860 10860 10860 10861 10862 10863 10865 10866 10866 10867 10869 10871 10874 10877 10881 10884 10886 10890 10895 10898 10903 10907 10910 10914 10919 10923 10927 10930 10934 10937 10941 10945 10951 10957 10960 10965 10969 10973 10977 10981 10985 10989 10990 10991 10993 10995 10997 10999 11003 11005 11006 11006 11007 11007 11009 11010 11008 11008 11009 11010 11011 11012 11013 11014 11015 11015 11014 11014 11014 11013 11012 11011 11009
10870 10868 10865 10863 10860 10858 10856 10855 10853 10852 10852 10852 10852 10852 10852 10852 10853 10853 10854 10855 10856 10858 10859 10860 10862 10863 10865 10868 10872 10875 10878 10880 10884 10889 10893 10897 10901 10905 10909 10914 10919 10922 10926 10930 10933 10936 10942 10949 10954 10957 10961 10965 10969 10973 10977 10982 10986 10987 10988 10990 10992 10995 10997 11000 11003 11004 11005 11005 11006 11008 11010 11009 11008 11009 11010 11011 11011 11013 11014 11015 11015 11015 11015 11015 11015 11014 11012 11011
10863 10860 10857 10854 10852 10849 10847 10845 10843 10842 10842 10842 10842 10842 10842 10843 10844 10845 10846 10847 10849 10850 10852 10854 10855 10857 10860 10862 10866 10869 10871 10874 10878 10882 10886 10891 10895 10900 10904 10909 10914 10917 10921 10925 10928 10934 10941 10946 10951 10954 10958 10962 10966 10970 10974 10979 10983 10985 10986 10988 10990 10992 10994 10997 11000 11002 11004 11004 11005 11007 11009 11009 11009 11009 11009 11010 11010 11012 11014 11014 11015 11015 11015 11016 11016 11015 11014 11013
10855 10852 10849 10845 10842 10839 10836 10834 10832 10830 10829 10830 10830 10831 10832 10833 10835 10836 10838 10839 10841 10842 10844 10846 10848 10851 10853 10856 10859 10862 10864 10868 10872 10875 10880 10885 10889 10894 10899 10904 10908 10912 10916 10920 10926 10933 10938 10942 10946 10951 10955 10958 10962 10966 10971 10977 10981 10982 10983 10986 10988 10989 10991 10994 10998 11000 11002 11003 11005 11006 11008 11009 11009 11009 11009 11009 11009 11011 11013 11014 11015 11015 11016 11016 11016 11016 11015 11015
10846 10842 10839 10835 10831 10828 10824 10822 10819 10817 10816 10816 10817 10819 10821 10822 10824 10826 10828 10830 10832 10834 10836 10838 10840 10843 10847 10851 10852 10854 10858 10861 10865 10868 10873 10878 10883 10888 10893 10898 10902 10907 10911 10916 10924 10930 10933 10936 10942 10946 10950 10954 10958 10963 10969 10974 10978 10979 10980 10983 10985 10987 10988 10992 10996 10999 11001 11003 11004 11005 11007 11008 11007 11007 11008 11009 11009 11011 11013 11014 11015 11016 11016 11017 11017 11017 11016 11016
10836 10832 10828 10823 10819 10814 10810 10807 10805 10803 10802 10802 10803 10805 10808 10810 10812 10814 10817 10819 10822 10824 10827 10830 10833 10836 10840 10843 10845 10847 10850 10854 10858 10863 10867 10872 10877 10882 10887 10892 10896 10900 10906 10912 10919 10924 10927 10932 10937 10941 10946 10951 10954 10959 10965 10970 10975 10977 10977 10980 10982 10984 10987 10991 10994 10997 10999 11002 11003 11004 11005 11006 11006 11006 11007 11008 11009 11011 11013 11014 11015 11016 11017 11017 11017 11017 11017 11017
10826 10820 10815 10810 10804 10799 10794 10791 10789 10788 10787 10787 10788 10791 10793 10796 10799 10802 10805 10808 10811 10814 10817 10821 10825 10829 10833 10835 10838 10841 10844 10849 10853 10858 10862 10867 10872 10876 10881 10885 10890 10895 10901 10908 10914 10919 10924 10928 10932 10937 10943 10948 10951 10956 10961 10966 10971 10974 10975 10977 10980 10982 10985 10988 10992 10995 10997 10999 11001 11002 11004 11005 11005 11005 11005 11007 11009 11010 11012 11014 11015 11016 11017 11017 11018 11018 11017 11017
10815 10808 10802 10795 10789 10783 10778 10775 10773 10771 10771 10771 10773 10775 10778 10781 10785 10789 10793 10796 10799 10803 10807 10812 10817 10822 10824 10827 10831 10835 10839 10843 10847 10852 10857 10861 10866 10871 10875 10880 10885 10890 10896 10903 10910 10916 10920 10923 10927 10933 10939 10944 10948 10952 10957 10962 10967 10970 10972 10975 10977 10980 10982 10985 10989 10992 10994 10996 10998 11000 11001 11003 11003 11004 11005 11006 11008 11010 11012 11014 11016 11016 11017 11018 11018 11018 11018 11018
10803 10796 10788 10780 10773 10766 10761 10758 10756 10755 10754 10755 10757 10760 10763 10767 10771 10776 10780 10784 10788 10792 10797 10803 10808 10813 10816 10820 10825 10830 10835 10838 10841 10847 10852 10856 10861 10865 10869 10873 10878 10884 10891 10899 10906 10910 10914 10918 10922 10929 10935 10940 10944 10947 10951 10956 10961 10965 10968 10972 10975 10978 10980 10982 10985 10989 10992 10994 10995 10997 10999 11001 11002 11003 11004 11006 11008 11010 11011 11013 11015 11017 11017 11018 11018 11019 11019 11018
10791 10782 10774 10765 10757 10750 10745 10741 10739 10738 10738 10739 10741 10745 10748 10753 10758 10763 10767 10771 10776 10781 10787 10793 10798 10804 10809 10813 10818 10824 10829 10832 10834 10839 10845 10850 10854 10858 10862 10867 10872 10879 10887 10894 10900 10904 10909 10913 10918 10925 10932 10937 10939 10940 10945 10951 10957 10962 10965 10969 10973 10975 10977 10980 10983 10987 10990 10992 10994 10996 10997 10999 11001 11002 11004 11006 11007 11010 11011 11013 11014 11016 11017 11018 11018 11019 11019 11019
10778 10768 10759 10750 10741 10734 10729 10725 10723 10722 10722 10724 10726 10730 10734 10739 10744 10749 10754 10759 10764 10770 10776 10782 10789 10796 10801 10806 10811 10816 10820 10825 10827 10830 10837 10842 10846 10851 10856 10862 10869 10875 10882 10888 10893 10899 10903 10908 10914 10921 10926 10929 10930 10934 10941 10948 10954 10958 10961 10965 10967 10970 10974 10978 10982 10984 10987 10990 10992 10994 10995 10997 10999 11001 11003 11005 11007 11009 11011 11013 11014 11016 11017 11018 11018 11019 11019 11020
10765 10755 10745 10735 10727 10719 10714 10711 10709 10708 10708 10709 10712 10716 10720 10724 10730 10736 10742 10747 10752 10758 10765 10773 10780 10786 10792 10797 10802 10807 10811 10818 10821 10823 10829 10835 10840 10844 10849 10856 10862 10869 10876 10881 10888 10894 10899 10903 10909 10913 10916 10919 10923 10930 10938 10944 10949 10953 10956 10959 10962 10966 10971 10975 10978 10982 10985 10988 10989 10991 10993 10996 10998 11000 11002 11004 11006 11008 11011 11013 11014 11015 11016 11017 11018 11019 11019 11020
10753 10742 10731 10721 10713 10706 10701 10698 10696 10695 10695 10696 10699 10702 10706 10711 10717 10723 10729 10734 10741 10748 10755 10763 10769 10776 10782 10788 10793 10798 10803 10809 10814 10817 10822 10829 10834 10839 10844 10849 10855 10861 10867 10874 10882 10889 10894 10898 10900 10903 10907 10913 10921 10928 10934 10939 10945 10950 10953 10956 10960 10964 10967 10970 10975 10980 10984 10986 10988 10989 10992 10995 10997 10999 11001 11004 11006 11008 11010 11012 11013 11015 11016 11017 11018 11018 11018 11019
10741 10730 10719 10709 10701 10695 10691 10688 10686 10685 10685 10686 10688 10691 10694 10698 10704 10710 10716 10722 10730 10737 10744 10751 10759 10767 10773 10779 10784 10789 10794 10800 10806 10811 10815 10821 10827 10833 10838 10842 10846 10852 10859 10868 10876 10883 10888 10890 10890 10895 10902 10911 10919 10925 10931 10936 10941 10946 10950 10954 10957 10960 10964 10968 10972 10976 10980 10983 10986 10988 10990 10993 10996 10999 11001 11002 11004 11006 11009 11011 11012 11014 11015 11016 11017 11018 11018 11018
10731 10719 10708 10699 10692 10686 10682 10680 10678 10677 10677 10677 10679 10681 10684 10688 10693 10698 10704 10711 10719 10726 10734 10742 10750 10758 10763 10768 10774 10779 10785 10791 10797 10803 10807 10813 10818 10824 10830 10834 10838 10845 10853 10862 10869 10875 10878 10878 10880 10889 10899 10908 10915 10921 10926 10931 10936 10942 10946 10949 10952 10956 10961 10965 10968 10972 10976 10980 10983 10986 10988 10991 10994 10998 10999 11000 11002 11005 11007 11009 11011 11013 11013 11014 11016 11017 11017 11018
10721 10710 10699 10691 10684 10679 10676 10673 10672 10671 10670 10670 10671 10673 10676 10679 10683 10688 10693 10700 10708 10716 10724 10732 10741 10746 10751 10758 10764 10770 10777 10784 10790 10796 10801 10805 10810 10817 10822 10826 10831 10839 10847 10854 10860 10865 10867 10868 10876 10886 10895 10902 10908 10915 10921 10926 10930 10934 10938 10943 10948 10953 10957 10960 10964 10969 10973 10978 10981 10983 10986 10989 10992 10995 10998 11000 11002 11004 11005 11008 11010 11011 11012 11013 11014 11015 11016 11017
10713 10702 10692 10684 10679 10674 10671 10668 10666 10665 10665 10664 10665 10667 10669 10672 10676 10679 10684 10691 10698 10705 10713 10721 10728 10733 10741 10749 10755 10761 10768 10775 10782 10789 10793 10798 10803 10808 10814 10819 10825 10831 10839 10846 10852 10855 10858 10866 10876 10883 10889 10896 10903 10910 10915 10918 10923 10927 10931 10938 10944 10949 10953 10956 10960 10965 10971 10975 10978 10981 10984 10986 10989 10993 10996 10999 11001 11001 11003 11006 11008 11010 11011 11011 11012 11014 11015 11016
10705 10695 10686 10679 10674 10670 10667 10664 10662 10661 10660 10660 10660 10662 10664 10666 10669 10673 10678 10683 10689 10696 10703 10710 10717 10724 10733 10740 10745 10752 10759 10766 10773 10780 10786 10792 10796 10802 10808 10813 10817 10823 10830 10837 10843 10848 10855 10864 10871 10876 10883 10889 10897 10905 10909 10913 10917 10921 10925 10933 10939 10942 10946 10951 10956 10962 10967 10971 10975 10979 10982 10984 10987 10990 10993 10996 10999 11000 11002 11005 11006 11008 11009 11010 11011 11012 11013 11014
10699 10690 10682 10676 10670 10666 10664 10661 10659 10658 10657 10657 10657 10658 10660 10662 10665 10668 10672 10677 10682 10688 10695 10702 10709 10717 10724 10730 10736 10743 10751 10758 10765 10772 10778 10784 10791 10796 10801 10805 10811 10817 10824 10831 10838 10842 10850 10857 10863 10869 10876 10883 10893 10899 10903 10907 10911 10914 10920 10927 10931 10933 10938 10947 10954 10959 10963 10967 10973 10976 10978 10981 10984 10987 10991 10994 10997 10998 11000 11003 11005 11006 11007 11008 11009 11010 11011 11012
10694 10685 10679 10673 10668 10664 10661 10659 10657 10656 10655 10655 10655 10656 10657 10659 10661 10664 10668 10672 10677 10682 10688 10694 10701 10708 10715 10721 10728 10736 10743 10751 10758 10764 10770 10778 10785 10789 10792 10798 10805 10812 10820 10828 10832 10835 10842 10849 10855 10861 10868 10877 10886 10889 10893 10898 10901 10905 10913 10918 10922 10927 10936 10946 10951 10955 10959 10964 10969 10971 10973 10977 10980 10984 10988 10991 10994 10996 10998 11000 11002 11004 11005 11006 11007 11008 11009 11011
10690 10682 10675 10670 10666 10662 10660 10658 10656 10655 10654 10654 10654 10654 10655 10657 10659 10662 10665 10668 10672 10677 10682 10688 10694 10701 10708 10714 10721 10729 10737 10745 10752 10758 10764 10771 10778 10782 10786 10792 10799 10807 10815 10820 10821 10828 10836 10842 10848 10856 10863 10870 10873 10876 10884 10889 10891 10898 10906 10913 10920 10928 10937 10945 10949 10952 10956 10960 10965 10968 10971 10974 10978 10982 10985 10989 10993 10995 10996 10998 11000 11002 11003 11004 11005 11006 11008 11010
10686 10679 10673 10668 10664 10661 10658 10657 10655 10654 10653 10652 10652 10653 10654 10655 10658 10660 10663 10665 10669 10673 10678 10684 10690 10696 10703 10709 10716 10724 10731 10739 10745 10751 10757 10762 10769 10774 10779 10786 10793 10801 10808 10810 10812 10820 10826 10833 10844 10852 10857 10859 10861 10868 10877 10878 10882 10893 10904 10913 10920 10927 10935 10942 10947 10950 10953 10957 10961 10965 10969 10972 10975 10979 10983 10986 10989 10992 10994 10995 10997 11000 11001 11002 11003 11004 11007 11009
10683 10676 10671 10666 10662 10660 10657 10656 10654 10653 10652 10652 10652 10652 10653 10654 10656 10658 10661 10663 10666 10670 10675 10680 10686 10692 10697 10703 10710 10717 10724 10731 10737 10743 10748 10753 10760 10767 10773 10780 10786 10793 10798 10800 10804 10811 10817 10827 10837 10842 10844 10848 10854 10864 10870 10872 10880 10893 10903 10910 10916 10921 10929 10935 10940 10943 10946 10951 10955 10959 10964 10968 10972 10976 10980 10983 10986 10989 10992 10993 10995 10996 10997 10998 11001 11003 11006 11009
10680 10674 10669 10664 10661 10658 10656 10655 10654 10653 10652 10651 10651 10651 10652 10652 10654 10656 10658 10661 10664 10668 10672 10677 10682 10687 10692 10698 10704 10709 10715 10721 10727 10733 10737 10743 10751 10758 10765 10771 10777 10783 10785 10788 10795 10804 10814 10823 10827 10830 10834 10839 10847 10856 10863 10870 10882 10892 10900 10906 10912 10916 10921 10925 10927 10928 10932 10940 10947 10953 10958 10964 10968 10973 10977 10980 10984 10986 10989 10991 10992 10992 10994 10996 10999 11001 11004 11005
10676 10671 10667 10663 10659 10657 10655 10654 10653 10652 10651 10650 10650 10650 10650 10651 10652 10654 10656 10659 10662 10665 10668 10672 10677 10682 10688 10693 10697 10700 10706 10712 10717 10723 10729 10734 10741 10748 10754 10761 10768 10773 10777 10783 10793 10802 10810 10816 10819 10824 10830 10835 10841 10849 10858 10869 10881 10890 10897 10903 10907 10910 10915 10918 10919 10919 10926 10934 10942 10948 10954 10960 10965 10969 10973 10976 10980 10983 10986 10989 10990 10991 10993 10995 10996 10998 11000 11002
10673 10668 10664 10661 10658 10656 10654 10653 10652 10651 10650 10650 10649 10649 10650 10651 10652 10653 10655 10657 10659 10662 10664 10667 10671 10676 10682 10686 10688 10692 10698 10705 10711 10717 10722 10728 10734 10740 10747 10755 10763 10767 10772 10781 10791 10798 10804 10810 10815 10822 10827 10831 10836 10843 10853 10864 10874 10882 10888 10894 10898 10902 10906 10910 10912 10915 10922 10929 10936 10944 10951 10955 10959 10964 10969 10973 10976 10980 10983 10986 10989 10990 10991 10993 10994 10996 10999 11000
10671 10665 10662 10658 10656 10654 10652 10651 10651 10650 10649 10649 10649 10649 10649 10650 10651 10652 10653 10654 10656 10658 10661 10663 10666 10669 10673 10677 10682 10688 10694 10698 10704 10710 10716 10723 10729 10736 10746 10755 10761 10765 10771 10780 10787 10793 10800 10805 10811 10817 10822 10825 10831 10838 10847 10857 10865 10871 10878 10886 10892 10895 10898 10902 10904 10908 10915 10922 10931 10940 10945 10949 10954 10961 10965 10969 10973 10978 10981 10982 10984 10986 10988 10990 10992 10994 10996 10998
10668 10663 10660 10656 10653 10652 10650 10650 10649 10648 10648 10648 10648 10648 10649 10650 10650 10650 10651 10652 10653 10655 10657 10659 10662 10666 10669 10673 10679 10685 10689 10693 10698 10705 10712 10718 10724 10734 10744 10752 10757 10762 10769 10776 10782 10787 10793 10798 10805 10811 10815 10819 10823 10830 10840 10850 10859 10867 10874 10880 10884 10888 10892 10895 10898 10904 10914 10923 10931 10937 10940 10945 10952 10957 10961 10965 10970 10974 10977 10978 10980 10982 10985 10988 10990 10991 10993 10995
10666 10660 10657 10654 10652 10650 10649 10648 10647 10647 10647 10647 10647 10647 10648 10648 10649 10649 10650 10650 10651 10652 10654 10656 10659 10662 10666 10670 10674 10679 10683 10688 10695 10702 10709 10714 10722 10732 10739 10744 10751 10757 10763 10769 10775 10780 10784 10790 10797 10802 10806 10810 10816 10824 10835 10846 10856 10863 10867 10870 10874 10879 10883 10888 10893 10902 10913 10920 10927 10932 10935 10941 10948 10952 10956 10962 10966 10970 10973 10975 10977 10980 10983 10985 10987 10989 10990 10992
10665 10658 10654 10651 10649 10648 10647 10646 10645 10645 10645 10645 10645 10645 10646 10647 10647 10648 10648 10648 10648 10649 10650 10652 10655 10659 10662 10664 10667 10671 10676 10682 10689 10697 10704 10711 10721 10728 10733 10739 10746 10751 10757 10764 10769 10773 10778 10783 10788 10793 10797 10802 10809 10819 10830 10840 10850 10856 10858 10861 10866 10871 10875 10882 10889 10899 10908 10915 10920 10924 10929 10937 10943 10948 10953 10958 10962 10963 10965 10969 10973 10977 10981 10983 10985 10986 10987 10989
10663 10658 10652 10649 10646 10645 10645 10644 10643 10643 10643 10643 10643 10643 10644 10644 10644 10645 10646 10646 10645 10645 10646 10648 10651 10655 10657 10659 10662 10665 10668 10673 10681 10690 10698 10707 10715 10720 10725 10733 10740 10745 10751 10757 10761 10766 10771 10777 10781 10785 10790 10796 10803 10812 10823 10832 10841 10848 10850 10855 10861 10863 10866 10874 10883 10892 10901 10908 10912 10916 10923 10931 10938 10944 10950 10955 10956 10957 10961 10967 10973 10976 10978 10980 10983 10985 10987 10988
10660 10655 10651 10648 10645 10644 10643 10642 10642 10641 10641 10641 10641 10641 10641 10641 10641 10642 10642 10642 10641 10641 10641 10643 10646 10649 10652 10654 10657 10658 10662 10668 10677 10683 10689 10697 10705 10711 10717 10725 10731 10737 10743 10749 10754 10759 10765 10770 10773 10779 10786 10791 10796 10804 10814 10823 10831 10836 10841 10848 10853 10854 10859 10870 10878 10886 10894 10900 10905 10911 10918 10925 10932 10939 10946 10949 10950 10954 10960 10967 10972 10976 10977 10977 10980 10984 10986 10989
10656 10652 10649 10646 10644 10642 10641 10640 10640 10639 10639 10639 10638 10638 10638 10638 10638 10638 10638 10637 10636 10636 10636 10637 10640 10643 10646 10648 10649 10651 10656 10665 10673 10677 10681 10688 10694 10700 10708 10715 10721 10727 10733 10739 10745 10751 10757 10762 10767 10774 10779 10782 10787 10795 10805 10813 10819 10825 10831 10838 10841 10845 10854 10866 10874 10881 10889 10895 10900 10906 10911 10917 10927 10935 10940 10942 10945 10950 10958 10965 10971 10974 10974 10973 10975 10980 10985 10989
10652 10648 10645 10643 10641 10640 10639 10638 10638 10637 10636 10636 10636 10636 10635 10635 10634 10634 10633 10632 10631 10630 10630 10631 10633 10636 10639 10641 10642 10644 10650 10659 10666 10670 10676 10683 10687 10691 10698 10705 10712 10719 10724 10730 10737 10743 10749 10755 10762 10767 10770 10773 10780 10788 10797 10805 10811 10816 10822 10828 10832 10840 10850 10860 10868 10875 10882 10887 10892 10898 10903 10912 10923 10931 10934 10936 10939 10945 10954 10963 10968 10970 10969 10966 10969 10975 10983 10988
10649 10645 10642 10640 10639 10637 10636 10635 10635 10634 10634 10633 10633 10633 10632 10632 10631 10630 10629 10627 10626 10624 10624 10624 10626 10629 10632 10635 10636 10640 10646 10653 10659 10663 10669 10676 10680 10685 10692 10697 10704 10711 10717 10724 10730 10736 10742 10748 10754 10758 10761 10766 10772 10780 10788 10796 10802 10805 10811 10819 10828 10838 10847 10855 10862 10867 10872 10879 10885 10891 10898 10908 10918 10924 10926 10929 10932 10939 10948 10956 10959 10960 10959 10958 10962 10969 10978 10985
10646 10642 10640 10638 10636 10634 10633 10632 10632 10631 10631 10631 10631 10630 10629 10628 10628 10626 10624 10623 10621 10619 10618 10618 10618 10621 10625 10628 10631 10635 10640 10647 10653 10657 10663 10668 10674 10680 10686 10692 10698 10704 10709 10716 10722 10728 10734 10741 10745 10749 10752 10758 10764 10771 10779 10786 10791 10795 10802 10813 10824 10835 10843 10850 10855 10858 10863 10871 10878 10886 10894 10903 10910 10915 10919 10921 10925 10933 10941 10946 10947 10948 10949 10951 10957 10965 10971 10974
10643 10639 10637 10636 10633 10631 10631 10630 10629 10629 10629 10628 10628 10628 10627 10626 10625 10623 10621 10618 10616 10614 10612 10611 10612 10615 10619 10622 10624 10628 10633 10639 10645 10650 10656 10662 10668 10674 10679 10684 10691 10696 10701 10707 10714 10721 10727 10733 10738 10741 10745 10751 10758 10765 10773 10779 10785 10790 10798 10809 10819 10828 10835 10841 10846 10852 10858 10865 10873 10881 10889 10896 10902 10907 10912 10915 10920 10926 10931 10934 10937 10939 10942 10945 10951 10958 10961 10963
10640 10636 10634 10633 10631 10629 10628 10627 10627 10626 10626 10626 10625 10625 10624 10624 10622 10621 10618 10615 10612 10610 10607 10607 10607 10609 10612 10615 10618 10621 10625 10631 10637 10642 10648 10654 10660 10666 10671 10676 10681 10687 10693 10699 10706 10712 10718 10724 10730 10734 10738 10744 10751 10759 10766 10772 10779 10785 10794 10804 10813 10820 10827 10835 10841 10847 10854 10860 10867 10874 10882 10890 10896 10901 10905 10909 10914 10919 10922 10924 10926 10930 10935 10938 10943 10949 10953 10957
10637 10634 10631 10630 10628 10626 10625 10624 10624 10624 10623 10623 10623 10623 10622 10622 10620 10618 10616 10612 10609 10607 10604 10604 10604 10605 10606 10609 10612 10615 10619 10624 10629 10635 10641 10645 10651 10658 10662 10666 10671 10677 10683 10690 10697 10702 10707 10714 10721 10726 10732 10738 10745 10752 10758 10763 10770 10777 10787 10796 10804 10811 10819 10827 10832 10838 10845 10853 10860 10868 10875 10883 10889 10892 10896 10900 10905 10909 10912 10914 10917 10921 10927 10931 10936 10941 10946 10951
10633 10631 10629 10627 10625 10623 10622 10622 10621 10621 10620 10620 10620 10620 10620 10620 10618 10616 10614 10610 10607 10604 10602 10601 10601 10601 10602 10604 10607 10609 10613 10617 10622 10627 10633 10638 10644 10649 10653 10657 10661 10667 10674 10681 10688 10693 10698 10704 10712 10718 10724 10731 10737 10744 10749 10755 10762 10769 10778 10787 10795 10803 10811 10818 10823 10829 10836 10843 10851 10860 10867 10874 10878 10881 10886 10891 10895 10898 10902 10905 10908 10913 10918 10924 10929 10935 10940 10944
10630 10627 10625 10624 10622 10621 10620 10619 10619 10619 10618 10617 10617 10617 10617 10617 10616 10614 10612 10609 10605 10602 10600 10599 10598 10598 10598 10600 10602 10604 10607 10611 10616 10622 10626 10631 10637 10641 10644 10648 10652 10658 10666 10673 10679 10684 10690 10696 10703 10710 10716 10722 10730 10736 10742 10748 10755 10761 10769 10779 10788 10796 10803 10809 10815 10820 10827 10835 10843 10852 10859 10864 10869 10873 10877 10883 10887 10891 10894 10898 10902 10906 10911 10916 10921 10927 10931 10935
10628 10625 10622 10620 10619 10618 10617 10617 10617 10616 10615 10615 10615 10615 10614 10614 10613 10612 10610 10608 10604 10600 10598 10597 10596 10595 10595 10596 10598 10601 10603 10607 10612 10617 10621 10625 10630 10634 10637 10641 10645 10651 10658 10665 10672 10677 10682 10689 10695 10701 10708 10714 10722 10729 10735 10741 10747 10754 10762 10770 10779 10787 10793 10800 10807 10812 10820 10828 10835 10842 10848 10854 10861 10866 10871 10877 10881 10884 10886 10890 10894 10898 10902 10907 10912 10917 10921 10927
10625 10622 10620 10618 10616 10615 10615 10614 10614 10613 10613 10613 10613 10612 10612 10611 10610 10609 10608 10606 10603 10600 10597 10595 10594 10593 10592 10593 10595 10597 10599 10603 10607 10611 10615 10619 10624 10629 10632 10635 10640 10645 10652 10658 10664 10670 10676 10682 10688 10694 10700 10706 10713 10721 10727 10732 10739 10746 10753 10760 10768 10776 10783 10790 10797 10803 10810 10817 10823 10830 10838 10844 10851 10856 10861 10866 10869 10872 10875 10879 10884 10887 10891 10897 10901 10906 10912 10917
10622 10620 10617 10616 10614 10613 10612 10612 10611 10611 10610 10611 10611 10610 10610 10609 10608 10607 10606 10604 10602 10599 10596 10594 10592 10591 10591 10590 10591 10593 10595 10598 10601 10604 10608 10612 10617 10622 10626 10630 10634 10639 10646 10652 10657 10663 10670 10675 10680 10686 10692 10698 10705 10712 10718 10724 10730 10736 10741 10748 10758 10766 10772 10779 10786 10793 10799 10805 10812 10820 10827 10832 10837 10842 10848 10853 10856 10859 10862 10867 10872 10875 10879 10886 10890 10895 10901 10907